sat.trackr.live / text

‹ back to catalog

STARLINK-5141

NORAD 55500 · 2023-015BD

PAYLOAD ACTIVE UNKNOWN

§ Identity

Operator
Country
US
Launch date
2023-02-02
Launch site
AFETR
Launch vehicle
Mass (kg)
RCS (m²)

Purposes: comms

External: N2YO · Heavens-Above · Gunter

§ Orbital elements

Epoch: 2026-09-20T20:56:41.921088Z

Period
94.27 min
Inclination
43.0049°
Eccentricity
0.0001662
Mean motion
15.27576625 rev/d
Perigee alt
481.9 km
Apogee alt
484.2 km
Semi-major
6,861.2 km
B*
6.3442e-6
RAAN
317.6338°
Arg perigee
289.6882°
Mean anomaly
70.3790°
Rev number
20,044

§ Raw data

STARLINK-51411 55500U 23015BD  26263.87270742 -.00000088  00000+0  63442-5 0  99922 55500  43.0049 317.6338 0001662 289.6882  70.3790 15.27576625200448

JSON: /api/v1/satellites/55500 · /tle

For live sub-satellite position, see the globe view (requires WebGL).

§ Visibility from observer

Set your observer location to see the next 7 days of passes ≥ 10°. The values pass through the URL so the page stays shareable.

No JS? Fill the form by hand. The geolocation button needs JavaScript.